sat.trackr.live / text

‹ back to catalog

STARLINK-32734

NORAD 62476 · 2024-254Q

PAYLOAD ACTIVE UNKNOWN

§ Identity

Operator
Country
US
Launch date
2024-12-31
Launch site
AFETR
Launch vehicle
Mass (kg)
RCS (m²)

Purposes: comms

External: N2YO · Heavens-Above · Gunter

§ Orbital elements

Epoch: 2026-09-21T12:53:56.538816Z

Period
94.27 min
Inclination
43.0008°
Eccentricity
0.0001717
Mean motion
15.27589560 rev/d
Perigee alt
481.8 km
Apogee alt
484.2 km
Semi-major
6,861.2 km
B*
3.9571e-4
RAAN
350.4732°
Arg perigee
274.2170°
Mean anomaly
85.8485°
Rev number
9,760

§ Raw data

STARLINK-327341 62476U 24254Q   26264.53745994  .00010646  00000+0  39571-3 0  99922 62476  43.0008 350.4732 0001717 274.2170  85.8485 15.27589560 97603

JSON: /api/v1/satellites/62476 · /tle

For live sub-satellite position, see the globe view (requires WebGL).

§ Visibility from observer

Set your observer location to see the next 7 days of passes ≥ 10°. The values pass through the URL so the page stays shareable.

No JS? Fill the form by hand. The geolocation button needs JavaScript.